[[{"header":{"parameterUnit":"m.s-1","parameterCategory":1,"la1":30.2991,"la2":30.254,"lo1":-89.0895,"lo2":-89.0444,"dy":0.0017,"dx":0.0017,"nx":28,"ny":28,"refTime":"2023-09-03T21:00:00:Z","depth":0,"parameterNumber":2,"parameterNumberName":"U-component_of_WINDS"},"data":[0,0,0,0,0,0,0,0,0,0,0,0,0,0,0,0,0,0,0,0,0,0,0,0,0,0,0,0,0,0,0,0,0,0,0,0,0,0,0,0,0,0,0,0,0,0,0,0,0,0,0,0,0,0,0,0,0,0,-3.8616,-3.8617,0,-3.8651,-3.8651,-3.8652,-3.8597,-3.8595,-3.8593,-3.8591,-3.8637,-3.864,-3.8643,0,0,0,0,0,0,0,0,0,0,0,0,0,-3.8511,-3.8513,-3.8616,-3.8617,-3.8617,-3.8651,-3.8651,-3.8652,-3.8597,-3.8595,-3.8593,-3.859,-3.8636,-3.864,-3.8643,0,0,0,0,0,0,0,0,0,0,0,0,0,-3.8553,-3.8514,-3.8616,-3.8593,-3.8592,-3.8651,-3.8651,-3.8652,-3.8598,-3.8595,-3.8592,-3.8589,-3.8635,-3.8639,-3.8644,-3.873,0,0,-3.8658,-3.866,0,0,0,0,0,0,0,0,-3.855,-3.8557,-3.8596,-3.8595,-3.8593,-3.8616,-3.8631,-3.8679,-3.8598,-3.8596,-3.8591,-3.8588,-3.8633,-3.8638,-3.8651,-3.8732,-3.8734,-3.8658,-3.8661,-3.8663,-3.8664,0,0,0,0,0,0,0,-3.8547,-3.8555,-3.863,-3.8597,-3.8595,-3.8585,-3.8587,-3.864,-3.8631,-3.8596,-3.8592,-3.8596,-3.8632,-3.8647,-3.8652,-3.8734,-3.8658,-3.8662,-3.8665,-3.8667,-3.8886,-3.8889,0,0,0,0,0,0,-3.8546,-3.8553,-3.8629,-3.8631,-3.8564,-3.8589,-3.8592,-3.8612,-3.863,-3.863,-3.8599,-3.8594,-3.864,-3.8646,-3.8653,-3.8753,-3.8663,-3.8667,-3.867,-3.8883,-3.8887,-3.889,0,0,0,0,0,0,-3.8544,-3.8553,-3.8628,-3.8591,-3.8599,-3.8594,-3.8617,-3.8614,-3.8629,-3.8632,-3.8631,-3.8615,-3.8638,-3.8647,-3.871,-3.8753,-3.8669,-3.8673,-3.8879,-3.8884,-3.8888,-3.8954,0,0,0,0,0,0,-3.8541,-3.8553,-3.8583,-3.8592,-3.8601,-3.8681,-3.862,-3.8617,-3.8636,-3.8629,-3.8647,-3.8647,-3.8637,-3.8703,-3.8714,-3.8758,-3.8677,-3.8875,-3.8881,-3.8887,-3.8948,-3.896,-3.8971,0,0,0,0,0,-3.8537,-3.8603,-3.8585,-3.8595,-3.8639,-3.8684,-3.869,-3.8674,-3.8639,-3.8671,-3.8673,-3.8646,-3.8747,-3.871,-3.8722,-3.8768,-3.8872,-3.888,-3.8886,-3.8942,-3.8958,-3.897,0,0,0,0,0,0,-3.8604,-3.8604,-3.8584,-3.8654,-3.8669,-3.8674,-3.8714,-3.8691,-3.8719,-3.8712,-3.8694,-3.8699,-3.8766,-3.8774,-3.8733,-3.8851,-3.8804,-3.8814,-3.8843,-3.8857,-3.8869,-3.8865,-3.868,0,0,0,0,0,-3.8626,-3.8659,-3.8659,-3.8721,-3.8729,-3.872,-3.8739,-3.8725,-3.8742,-3.8749,-3.8755,-3.8775,-3.8811,-3.8835,-3.8869,-3.8949,-3.8952,-3.8987,-3.8998,-3.9008,-3.9016,-3.9058,-3.9072,-3.8913,-3.8913,-3.8913,0,0,-3.8674,-3.8677,-3.87,-3.8734,-3.8744,-3.8781,-3.8726,-3.8769,-3.8796,-3.8757,-3.8814,-3.882,-3.8841,-3.8913,-3.8945,-3.8922,-3.9061,-3.9017,-3.9024,-3.9027,-3.9066,-3.9081,-3.9095,-3.8918,-3.8917,-3.8916,0,0,-3.8778,-3.8784,-3.8835,-3.8845,-3.886,-3.8853,-3.8866,-3.8875,-3.8875,-3.8933,-3.8903,-3.8938,-3.9001,-3.9016,-3.9032,-3.914,-3.9117,-3.9153,-3.9212,-3.9253,-3.9266,-3.9277,-3.9314,-3.9327,-3.9161,-3.9161,-3.9161,0,-3.8835,-3.8887,-3.8865,-3.8908,-3.8924,-3.8886,-3.8938,-3.895,-3.8977,-3.899,-3.8963,-3.9038,-3.905,-3.9124,-3.9149,-3.9165,-3.9179,-3.915,-3.9265,-3.9276,-3.9286,-3.9321,-3.9335,-3.9165,-3.9165,-3.9164,-3.9164,0,-3.8956,-3.8993,-3.9033,-3.9054,-3.9075,-3.9123,-3.911,-3.9134,-3.9119,-3.9116,-3.9175,-3.9187,-3.9221,-3.9238,-3.9226,-3.931,-3.9295,-3.9267,-3.9219,-3.9305,-3.9338,-3.9351,-3.9171,-3.917,-3.9168,-3.9167,0,0,-3.9104,-3.911,-3.9125,-3.9133,-3.9146,-3.9175,-3.9222,-3.9251,-3.9272,-3.9292,-3.9331,-3.9384,-3.9357,-3.9375,-3.9364,-3.94,-3.9483,-3.9367,-3.9367,-3.9386,-3.9575,-3.9594,-3.961,-3.9467,-3.947,-3.9472,-3.9572,0,-3.9206,-3.9281,-3.9262,-3.9339,-3.9372,-3.9336,-3.9377,-3.939,-3.9389,-3.9419,-3.9419,-3.9456,-3.9418,-3.9429,-3.9463,-3.9465,-3.952,-3.9458,-3.9505,-3.9506,-3.9498,-3.9628,-3.9649,-3.9743,-3.9585,-3.9588,-3.9589,0,-3.9335,-3.9354,-3.9432,-3.9437,-3.945,-3.9487,-3.9511,-3.954,-3.9555,-3.9552,-3.9571,-3.9552,-3.96,-3.9553,-3.9619,-3.9577,-3.9595,-3.96,-3.9603,-3.9605,-3.9552,-3.9632,-3.9773,-3.9786,-3.961,-3.9608,-3.9606,0,-3.9432,-3.9479,-3.953,-3.9539,-3.9547,-3.9573,-3.9578,-3.959,-3.9608,-3.9631,-3.9643,-3.9673,-3.9689,-3.9714,-3.9704,-3.9671,-3.9772,-3.9724,-3.9771,-3.9771,-3.9793,-3.9792,-3.9937,-3.9808,-3.9808,-3.9808,-3.9807,0,-3.9547,-3.9596,-3.9573,-3.9606,-3.966,-3.9639,-3.9694,-3.9695,-3.9706,-3.9739,-3.9712,-3.9744,-3.973,-3.9762,-3.9756,-3.9811,-3.9819,-3.9819,-3.9816,-3.982,-3.982,-3.9831,-3.9824,-3.9811,-3.9811,-3.981,-3.9809,0,-3.9664,-3.9651,-3.9705,-3.9706,-3.9708,-3.9748,-3.975,-3.9781,-3.9777,-3.9819,-3.9828,-3.9823,-3.9859,-3.9851,-3.9893,-3.9888,-3.9957,-3.9947,-3.995,-3.9947,-3.9994,-3.9989,-4.015,-4.017,-4.003,-4.0031,-4.0032,0,-3.9738,-3.9774,-3.9777,-3.9795,-3.9801,-3.9832,-3.9849,-3.9831,-3.985,-3.9869,-3.9898,-3.993,-3.9955,-4.0015,-4.0017,-4.0048,-4.0038,-4.0092,-4.0043,-4.0045,-4.0037,-4.0034,-4.0037,-4.0102,-4.0103,-4.0105,-4.0106,0,-3.9869,-3.986,-3.9884,-3.9905,-3.9925,-3.9943,-3.9958,-3.9975,-3.9958,-3.9982,-4.0016,-4.0035,-4.0074,-4.0107,-4.0136,-4.0144,-4.0123,-4.0121,-4.0133,-4.0137,-4.0137,-4.0136,-3.9975,-4.0118,-4.0116,-4.0116,-4.0115,-4.0114,-3.9966,-3.9995,-4.0001,-4.0028,-4.0037,-4.0051,-4.0078,-4.0076,-4.0103,-4.0131,-4.0119,-4.0158,-4.0172,-4.0207,-4.0218,-4.025,-4.023,-4.0249,-4.0253,-4.0257,-4.0262,-4.0132,-4.0256,-4.0255,-4.0255,-4.0255,-4.0255,0,-4.0094,-4.0095,-4.0121,-4.014,-4.0161,-4.0135,-4.015,-4.0171,-4.0204,-4.0217,-4.024,-4.028,-4.0311,-4.0314,-4.0344,-4.0369,-4.0359,-4.0377,-4.0375,-4.0376,-4.0279,-4.0264,-4.0384,-4.0384,-4.0384,-4.0384,-4.0384,-4.0384,-4.0163,-4.0211,-4.0202,-4.0254,-4.0256,-4.0291,-4.0301,-4.0314,-4.0323,-4.0367,-4.0391,-4.0391,-4.04,-4.043,-4.0458,-4.0458,-4.047,-4.0491,-4.0488,-4.0397,-4.0384,-4.0371,-4.0357,-4.0494,-4.0494,-4.0582,-4.0583,-4.0584]},{"header":{"parameterUnit":"m.s-1","parameterCategory":1,"la1":30.2991,"la2":30.254,"lo1":-89.0895,"lo2":-89.0444,"dy":0.0017,"dx":0.0017,"nx":28,"ny":28,"refTime":"2023-09-03T21:00:00:Z","depth":0,"parameterNumber":3,"parameterNumberName":"V-component_of_WINDS"},"data":[0,0,0,0,0,0,0,0,0,0,0,0,0,0,0,0,0,0,0,0,0,0,0,0,0,0,0,0,0,0,0,0,0,0,0,0,0,0,0,0,0,0,0,0,0,0,0,0,0,0,0,0,0,0,0,0,0,0,4.1712,4.1714,0,4.1921,4.1924,4.1926,4.198,4.1978,4.1977,4.1976,4.2184,4.2191,4.2197,0,0,0,0,0,0,0,0,0,0,0,0,0,4.1355,4.1362,4.1712,4.1715,4.1717,4.1921,4.1924,4.1927,4.198,4.1978,4.1977,4.1975,4.2182,4.219,4.2198,0,0,0,0,0,0,0,0,0,0,0,0,0,4.1532,4.1364,4.1711,4.1768,4.1776,4.1921,4.1924,4.1928,4.198,4.1978,4.1976,4.1975,4.2179,4.2189,4.2199,4.23,0,0,4.223,4.2235,0,0,0,0,0,0,0,0,4.1522,4.1545,4.1757,4.1765,4.1773,4.1923,4.1875,4.2052,4.1981,4.1902,4.1976,4.1974,4.2098,4.2115,4.2158,4.231,4.2319,4.2231,4.2237,4.2242,4.2244,0,0,0,0,0,0,0,4.1509,4.1536,4.1795,4.176,4.177,4.1783,4.1806,4.1909,4.2008,4.1909,4.1913,4.1938,4.2102,4.2148,4.2164,4.2322,4.2231,4.224,4.2246,4.225,4.2571,4.2573,0,0,0,0,0,0,4.1488,4.1526,4.1788,4.1801,4.164,4.1791,4.1816,4.1876,4.2008,4.2026,4.1939,4.194,4.2132,4.2152,4.2171,4.23,4.2241,4.2251,4.2257,4.2569,4.2571,4.2574,0,0,0,0,0,0,4.148,4.1511,4.178,4.1665,4.17,4.1799,4.1866,4.1882,4.1928,4.2031,4.2048,4.1968,4.2131,4.2157,4.2269,4.2308,4.2255,4.2265,4.2566,4.2569,4.2573,4.2557,0,0,0,0,0,0,4.147,4.1508,4.1547,4.1665,4.1706,4.1875,4.1868,4.1887,4.1946,4.1948,4.2062,4.2079,4.2132,4.2254,4.2279,4.2321,4.2273,4.2563,4.2567,4.2572,4.2554,4.2559,4.2564,0,0,0,0,0,4.1457,4.1533,4.1549,4.158,4.1758,4.1877,4.19,4.196,4.1949,4.199,4.2056,4.2076,4.23,4.2265,4.2294,4.2339,4.256,4.2566,4.2571,4.2552,4.2558,4.2564,0,0,0,0,0,0,4.1413,4.1549,4.1569,4.1685,4.177,4.1885,4.1938,4.1965,4.2052,4.205,4.212,4.2145,4.2253,4.2308,4.2266,4.2446,4.243,4.2442,4.2406,4.2413,4.2417,4.2401,4.2281,0,0,0,0,0,4.1418,4.1505,4.1618,4.171,4.1751,4.1838,4.1892,4.1932,4.2021,4.2056,4.213,4.2215,4.2305,4.2362,4.245,4.2564,4.2589,4.2609,4.2614,4.2618,4.2626,4.2692,4.2702,4.2592,4.2592,4.2592,0,0,4.1427,4.1512,4.1561,4.1703,4.1773,4.1861,4.1867,4.1958,4.2024,4.2069,4.218,4.2238,4.2337,4.2451,4.2505,4.25,4.2663,4.2625,4.2627,4.2633,4.2699,4.2709,4.2718,4.2596,4.2595,4.2595,0,0,4.1488,4.1561,4.1647,4.1718,4.1825,4.1883,4.1904,4.2018,4.2059,4.2172,4.2209,4.2288,4.244,4.251,4.2566,4.2659,4.268,4.2686,4.271,4.2773,4.2782,4.279,4.2823,4.2835,4.2694,4.2694,4.2694,0,4.1485,4.162,4.1687,4.1778,4.184,4.1889,4.1976,4.2041,4.2171,4.2212,4.2205,4.2401,4.2471,4.2603,4.2626,4.2669,4.2695,4.2671,4.2776,4.2784,4.2793,4.2826,4.2838,4.2694,4.2694,4.2694,4.2694,0,4.1611,4.1704,4.176,4.1888,4.1956,4.2044,4.2125,4.2186,4.2221,4.228,4.2396,4.2483,4.259,4.2625,4.2659,4.2763,4.2757,4.2762,4.2747,4.2802,4.2834,4.2847,4.2694,4.2694,4.2694,4.2694,0,0,4.1646,4.1814,4.1833,4.1893,4.2017,4.209,4.2182,4.229,4.2341,4.243,4.2508,4.2639,4.2647,4.271,4.2752,4.2808,4.2878,4.2808,4.2811,4.2817,4.2999,4.2993,4.3006,4.2895,4.2897,4.2899,4.299,0,4.1723,4.189,4.1955,4.2091,4.2178,4.2229,4.2309,4.2393,4.2452,4.2534,4.2598,4.2689,4.2692,4.2731,4.2789,4.2857,4.2915,4.2852,4.2967,4.297,4.2939,4.3023,4.3016,4.3097,4.3003,4.3005,4.3007,0,4.1833,4.1926,4.2071,4.2189,4.2228,4.2298,4.2405,4.2483,4.2581,4.2619,4.2692,4.2733,4.2831,4.2813,4.2949,4.2904,4.2956,4.2997,4.3002,4.3013,4.299,4.3035,4.3125,4.3137,4.3027,4.3026,4.3024,0,4.1844,4.2006,4.2115,4.2165,4.2303,4.2352,4.2412,4.2509,4.2571,4.2663,4.2704,4.2806,4.2861,4.294,4.3007,4.2987,4.3137,4.3124,4.3171,4.3169,4.3198,4.3195,4.3296,4.3233,4.3233,4.3233,4.3233,0,4.1921,4.2008,4.2123,4.2189,4.2288,4.2363,4.2459,4.2522,4.2609,4.2688,4.2738,4.2811,4.2896,4.298,4.3034,4.3139,4.3163,4.3197,4.3209,4.3192,4.3187,4.3225,4.322,4.3236,4.3236,4.3235,4.3234,0,4.1949,4.203,4.2151,4.2275,4.2308,4.2376,4.2481,4.2547,4.261,4.271,4.2738,4.2835,4.2937,4.3013,4.3144,4.3181,4.3293,4.3306,4.326,4.3266,4.3309,4.3304,4.3436,4.3458,4.3382,4.3382,4.3383,0,4.1992,4.2061,4.2193,4.2252,4.2312,4.2405,4.247,4.2547,4.2612,4.2732,4.2784,4.289,4.2979,4.314,4.3222,4.3323,4.3339,4.3379,4.3354,4.3335,4.3339,4.3334,4.3341,4.3381,4.3382,4.3382,4.3382,0,4.2061,4.2099,4.2191,4.2299,4.2376,4.2463,4.2552,4.2596,4.269,4.276,4.2867,4.2937,4.3074,4.3178,4.3289,4.335,4.3382,4.339,4.3406,4.3388,4.3358,4.3375,4.3268,4.3386,4.3386,4.3385,4.3385,4.3385,4.2098,4.2162,4.2266,4.2368,4.2444,4.2527,4.2596,4.267,4.2761,4.2879,4.292,4.303,4.3129,4.3282,4.3344,4.3431,4.343,4.3454,4.3459,4.3464,4.3462,4.3346,4.3451,4.3451,4.3452,4.3452,4.3452,0,4.2169,4.224,4.2333,4.2457,4.2538,4.2565,4.2665,4.273,4.2828,4.2919,4.3007,4.3131,4.3234,4.3326,4.3433,4.3485,4.3503,4.3511,4.3506,4.352,4.3457,4.3432,4.3495,4.3495,4.3495,4.3495,4.3495,4.3495,4.2215,4.2326,4.2376,4.2525,4.2596,4.2706,4.2761,4.2838,4.2911,4.3048,4.3135,4.3196,4.3287,4.3402,4.3498,4.3523,4.3559,4.3564,4.3591,4.353,4.3524,4.3519,4.3496,4.3571,4.3572,4.3648,4.3648,4.3649]}]]